| time (UTC) | temp C | wind direction | speed KPH | gust KPH | rain 1hr cm | rain 24hr cm | rain mn cm | humidity % | barometer mb |
| 20260507192606 | 9 | 289 | 0.0 | 0.0 | 0.00 | 0.00 | 0.00 | 29 | 1024.0 |
| 20260507192106 | 9 | 288 | 0.0 | 0.0 | 0.00 | 0.00 | 0.00 | 38 | 1024.0 |
| 20260507191607 | 10 | 288 | 0.0 | 1.6 | 0.00 | 0.00 | 0.00 | 47 | 1023.8 |
| 20260507191106 | 10 | 288 | 0.0 | 1.6 | 0.00 | 0.00 | 0.00 | 53 | 1023.7 |
| 20260507190606 | 10 | 281 | 0.0 | 1.6 | 0.00 | 0.00 | 0.00 | 60 | 1023.7 |
| 20260507190107 | 10 | 48 | 0.0 | 0.0 | 0.00 | 0.00 | 0.00 | 65 | 1023.5 |
| 20260507185606 | 10 | 48 | 0.0 | 1.6 | 0.00 | 0.00 | 0.00 | 70 | 1023.4 |
| 20260507185105 | 10 | 48 | 0.0 | 4.8 | 0.00 | 0.00 | 0.00 | 74 | 1023.3 |
| 20260507184606 | 10 | 48 | 0.0 | 6.4 | 0.00 | 0.00 | 0.00 | 74 | 1023.2 |
| 20260507184105 | 10 | 69 | 3.2 | 8.0 | 0.00 | 0.00 | 0.00 | 74 | 1023.1 |
| 20260507183606 | 10 | 73 | 3.2 | 9.7 | 0.00 | 0.00 | 0.00 | 75 | 1023.1 |
| 20260507183105 | 10 | 89 | 3.2 | 9.7 | 0.00 | 0.00 | 0.00 | 75 | 1023.0 |
| 20260507182606 | 10 | 75 | 4.8 | 9.7 | 0.00 | 0.00 | 0.00 | 74 | 1022.9 |
| 20260507182106 | 10 | 104 | 4.8 | 8.0 | 0.00 | 0.00 | 0.00 | 74 | 1022.9 |
| 20260507181606 | 10 | 102 | 3.2 | 8.0 | 0.00 | 0.00 | 0.00 | 74 | 1022.9 |
| 20260507181104 | 10 | 102 | 3.2 | 9.7 | 0.00 | 0.00 | 0.00 | 74 | 1022.8 |
| 20260507180604 | 10 | 76 | 4.8 | 11.3 | 0.00 | 0.00 | 0.00 | 75 | 1022.7 |
| 20260507180104 | 10 | 79 | 6.4 | 11.3 | 0.00 | 0.00 | 0.00 | 75 | 1022.6 |
| 20260507175605 | 10 | 90 | 3.2 | 14.5 | 0.00 | 0.00 | 0.00 | 75 | 1022.6 |
| 20260507175105 | 11 | 58 | 6.4 | 14.5 | 0.00 | 0.00 | 0.00 | 75 | 1022.5 |
| 20260507174605 | 11 | 75 | 3.2 | 11.3 | 0.00 | 0.00 | 0.00 | 75 | 1022.6 |
| 20260507174104 | 11 | 110 | 4.8 | 11.3 | 0.00 | 0.00 | 0.00 | 75 | 1022.6 |
| 20260507173605 | 11 | 121 | 4.8 | 11.3 | 0.00 | 0.00 | 0.00 | 75 | 1022.6 |
| 20260507173105 | 11 | 86 | 4.8 | 9.7 | 0.00 | 0.00 | 0.00 | 75 | 1022.6 |
| 20260507172603 | 11 | 80 | 4.8 | 9.7 | 0.00 | 0.00 | 0.00 | 74 | 1022.6 |
| 20260507172103 | 11 | 94 | 3.2 | 11.3 | 0.00 | 0.00 | 0.00 | 74 | 1022.5 |
| 20260507171603 | 11 | 86 | 4.8 | 14.5 | 0.00 | 0.00 | 0.00 | 75 | 1022.5 |
| 20260507171103 | 11 | 65 | 4.8 | 17.7 | 0.00 | 0.00 | 0.00 | 74 | 1022.5 |
| 20260507170604 | 11 | 78 | 6.4 | 17.7 | 0.00 | 0.00 | 0.00 | 75 | 1022.5 |
| 20260507170104 | 11 | 48 | 6.4 | 9.7 | 0.00 | 0.00 | 0.00 | 75 | 1022.2 |
| 20260507165604 | 11 | 80 | 4.8 | 9.7 | 0.00 | 0.00 | 0.00 | 75 | 1022.5 |
| 20260507165104 | 11 | 54 | 6.4 | 9.7 | 0.00 | 0.00 | 0.00 | 75 | 1022.4 |
| 20260507164604 | 11 | 110 | 4.8 | 14.5 | 0.00 | 0.00 | 0.00 | 75 | 1022.4 |
| 20260507164103 | 11 | 82 | 8.0 | 14.5 | 0.00 | 0.00 | 0.00 | 75 | 1022.4 |
| 20260507163603 | 11 | 107 | 3.2 | 9.7 | 0.00 | 0.00 | 0.00 | 75 | 1022.4 |
| 20260507163103 | 11 | 89 | 6.4 | 9.7 | 0.00 | 0.00 | 0.00 | 75 | 1022.2 |
| 20260507162603 | 11 | 79 | 0.0 | 6.4 | 0.00 | 0.00 | 0.00 | 75 | 1022.1 |
| 20260507162103 | 11 | 103 | 3.2 | 6.4 | 0.00 | 0.00 | 0.00 | 75 | 1022.1 |
| 20260507161603 | 11 | 90 | 3.2 | 6.4 | 0.00 | 0.00 | 0.00 | 74 | 1022.1 |
| 20260507161102 | 11 | 109 | 0.0 | 0.0 | 0.00 | 0.00 | 0.00 | 73 | 1022.0 |
| 20260507160602 | 11 | 110 | 0.0 | 0.0 | 0.00 | 0.00 | 0.00 | 73 | 1022.0 |
| 20260507155603 | 11 | 110 | 0.0 | 1.6 | 0.00 | 0.00 | 0.00 | 74 | 1022.0 |
| 20260507155102 | 11 | 71 | 0.0 | 6.4 | 0.00 | 0.00 | 0.00 | 73 | 1022.0 |
| 20260507154602 | 11 | 90 | 0.0 | 6.4 | 0.00 | 0.00 | 0.00 | 75 | 1022.0 |
| 20260507154103 | 11 | 97 | 0.0 | 3.2 | 0.00 | 0.00 | 0.00 | 75 | 1022.0 |
| 20260507153602 | 11 | 97 | 0.0 | 3.2 | 0.00 | 0.00 | 0.00 | 75 | 1022.0 |
| 20260507153102 | 11 | 76 | 1.6 | 3.2 | 0.00 | 0.00 | 0.00 | 75 | 1021.8 |
| 20260507152602 | 11 | 353 | 0.0 | 1.6 | 0.00 | 0.00 | 0.00 | 73 | 1021.7 |
| 20260507152101 | 11 | 353 | 0.0 | 1.6 | 0.00 | 0.00 | 0.00 | 70 | 1021.7 |
| 20260507151602 | 10 | 295 | 0.0 | 8.0 | 0.00 | 0.00 | 0.00 | 68 | 1021.8 |
| 20260507151102 | 10 | 303 | 0.0 | 11.3 | 0.00 | 0.00 | 0.00 | 71 | 1021.7 |
| 20260507150601 | 10 | 276 | 4.8 | 11.3 | 0.00 | 0.00 | 0.00 | 73 | 1021.7 |
| 20260507150101 | 10 | 282 | 3.2 | 8.0 | 0.00 | 0.00 | 0.00 | 73 | 1021.6 |
| 20260507145601 | 10 | 259 | 0.0 | 6.4 | 0.00 | 0.00 | 0.00 | 74 | 1021.7 |
| 20260507145102 | 10 | 289 | 1.6 | 8.0 | 0.00 | 0.00 | 0.00 | 74 | 1021.7 |
| 20260507144601 | 11 | 295 | 3.2 | 9.7 | 0.00 | 0.00 | 0.00 | 73 | 1022.0 |
| 20260507144101 | 11 | 306 | 6.4 | 9.7 | 0.00 | 0.00 | 0.00 | 74 | 1022.1 |
| 20260507143600 | 11 | 341 | 0.0 | 4.8 | 0.00 | 0.00 | 0.00 | 72 | 1021.9 |
| 20260507143100 | 11 | 86 | 1.6 | 6.4 | 0.00 | 0.00 | 0.00 | 74 | 1021.9 |
| 20260507142601 | 11 | 111 | 3.2 | 8.0 | 0.00 | 0.00 | 0.00 | 74 | 1021.8 |
| 20260507142100 | 11 | 72 | 3.2 | 11.3 | 0.00 | 0.00 | 0.00 | 75 | 1021.8 |
| 20260507141600 | 11 | 52 | 3.2 | 11.3 | 0.00 | 0.00 | 0.00 | 75 | 1021.7 |
| 20260507141100 | 11 | 106 | 6.4 | 14.5 | 0.00 | 0.00 | 0.00 | 75 | 1021.6 |
| 20260507140601 | 11 | 76 | 6.4 | 16.1 | 0.00 | 0.00 | 0.00 | 75 | 1021.6 |
| 20260507140100 | 11 | 102 | 9.7 | 16.1 | 0.00 | 0.00 | 0.00 | 75 | 1021.6 |
| 20260507135600 | 11 | 80 | 8.0 | 14.5 | 0.00 | 0.00 | 0.00 | 74 | 1021.5 |
| 20260507135059 | 12 | 90 | 8.0 | 19.3 | 0.00 | 0.00 | 0.00 | 74 | 1021.6 |
| 20260507134559 | 12 | 102 | 8.0 | 19.3 | 0.00 | 0.00 | 0.00 | 74 | 1021.6 |
| 20260507134059 | 12 | 102 | 9.7 | 17.7 | 0.00 | 0.00 | 0.00 | 74 | 1021.6 |
| 20260507133600 | 11 | 78 | 9.7 | 17.7 | 0.00 | 0.00 | 0.00 | 74 | 1021.6 |
| 20260507133059 | 11 | 100 | 8.0 | 16.1 | 0.00 | 0.00 | 0.00 | 74 | 1021.7 |
| 20260507132559 | 11 | 111 | 6.4 | 11.3 | 0.00 | 0.00 | 0.00 | 73 | 1021.6 |
| 20260507132059 | 11 | 103 | 8.0 | 11.3 | 0.00 | 0.00 | 0.00 | 74 | 1021.6 |
| 20260507131559 | 11 | 58 | 4.8 | 11.3 | 0.00 | 0.00 | 0.00 | 74 | 1021.7 |
| 20260507131058 | 11 | 72 | 6.4 | 11.3 | 0.00 | 0.00 | 0.00 | 74 | 1021.6 |
| 20260507130559 | 11 | 55 | 6.4 | 11.3 | 0.00 | 0.00 | 0.00 | 73 | 1021.7 |
| 20260507130059 | 11 | 86 | 3.2 | 11.3 | 0.00 | 0.00 | 0.00 | 72 | 1021.7 |
| 20260507125559 | 11 | 97 | 4.8 | 11.3 | 0.00 | 0.00 | 0.00 | 71 | 1021.7 |
| 20260507125058 | 11 | 107 | 3.2 | 11.3 | 0.00 | 0.00 | 0.00 | 69 | 1021.7 |
| 20260507124558 | 11 | 92 | 4.8 | 11.3 | 0.00 | 0.00 | 0.00 | 71 | 1021.5 |
| 20260507124058 | 11 | 106 | 3.2 | 9.7 | 0.00 | 0.00 | 0.00 | 72 | 1021.6 |
| 20260507123558 | 11 | 90 | 6.4 | 9.7 | 0.00 | 0.00 | 0.00 | 70 | 1021.5 |
| 20260507123058 | 11 | 104 | 6.4 | 9.7 | 0.00 | 0.00 | 0.00 | 64 | 1021.5 |
| 20260507122559 | 11 | 107 | 1.6 | 4.8 | 0.00 | 0.00 | 0.00 | 73 | 1021.4 |
| 20260507122058 | 11 | 271 | 0.0 | 1.6 | 0.00 | 0.00 | 0.00 | 74 | 1021.5 |
| 20260507121558 | 11 | 271 | 0.0 | 3.2 | 0.00 | 0.00 | 0.00 | 74 | 1021.5 |
| 20260507121057 | 11 | 258 | 0.0 | 3.2 | 0.00 | 0.00 | 0.00 | 75 | 1021.4 |
| 20260507120557 | 11 | 341 | 0.0 | 4.8 | 0.00 | 0.00 | 0.00 | 75 | 1021.4 |
| 20260507120057 | 11 | 306 | 1.6 | 6.4 | 0.00 | 0.00 | 0.00 | 74 | 1021.5 |
| 20260507115558 | 11 | 312 | 0.0 | 8.0 | 0.00 | 0.00 | 0.00 | 74 | 1021.3 |
| 20260507115057 | 11 | 288 | 1.6 | 8.0 | 0.00 | 0.00 | 0.00 | 74 | 1021.2 |
| 20260507114557 | 11 | 117 | 0.0 | 6.4 | 0.00 | 0.00 | 0.00 | 75 | 1021.2 |
| 20260507114057 | 11 | 290 | 0.0 | 8.0 | 0.00 | 0.00 | 0.00 | 75 | 1021.2 |
| 20260507113556 | 11 | 18 | 3.2 | 8.0 | 0.00 | 0.00 | 0.00 | 74 | 1021.1 |
| 20260507113057 | 11 | 286 | 4.8 | 8.0 | 0.00 | 0.00 | 0.00 | 74 | 1021.1 |
| 20260507112606 | 10 | 237 | 1.6 | 8.0 | 0.00 | 0.00 | 0.00 | 74 | 1021.0 |
| 20260507112056 | 10 | 333 | 3.2 | 9.7 | 0.00 | 0.00 | 0.00 | 74 | 1021.0 |
| 20260507111556 | 10 | 282 | 3.2 | 19.3 | 0.00 | 0.00 | 0.00 | 75 | 1020.8 |
| 20260507111056 | 10 | 17 | 6.4 | 22.5 | 0.00 | 0.00 | 0.00 | 75 | 1020.8 |
| 20260507110556 | 10 | 293 | 17.7 | 24.1 | 0.00 | 0.00 | 0.00 | 74 | 1021.0 |
| 20260507110056 | 10 | 290 | 16.1 | 29.0 | 0.00 | 0.00 | 0.00 | 75 | 1020.8 |
| 20260507105556 | 11 | 283 | 14.5 | 32.2 | 0.00 | 0.00 | 0.00 | 73 | 1020.6 |
| 20260507105056 | 11 | 288 | 16.1 | 32.2 | 0.00 | 0.00 | 0.00 | 70 | 1020.5 |
| 20260507104556 | 12 | 281 | 20.9 | 32.2 | 0.00 | 0.00 | 0.00 | 67 | 1020.4 |
| 20260507104056 | 12 | 299 | 9.7 | 30.6 | 0.00 | 0.00 | 0.00 | 67 | 1020.3 |
| 20260507103555 | 12 | 303 | 17.7 | 30.6 | 0.00 | 0.00 | 0.00 | 65 | 1020.2 |
| 20260507103055 | 13 | 303 | 20.9 | 35.4 | 0.00 | 0.00 | 0.00 | 66 | 1020.3 |
| 20260507102556 | 13 | 283 | 25.7 | 35.4 | 0.00 | 0.00 | 0.00 | 65 | 1020.2 |
| 20260507102055 | 13 | 281 | 24.1 | 33.8 | 0.00 | 0.00 | 0.00 | 65 | 1020.2 |
| 20260507101555 | 13 | 271 | 17.7 | 29.0 | 0.00 | 0.00 | 0.00 | 64 | 1020.2 |
| 20260507101055 | 13 | 347 | 12.9 | 30.6 | 0.00 | 0.00 | 0.00 | 65 | 1020.3 |
| 20260507100555 | 13 | 264 | 14.5 | 30.6 | 0.00 | 0.00 | 0.00 | 64 | 1020.2 |
| 20260507100055 | 13 | 279 | 12.9 | 22.5 | 0.00 | 0.00 | 0.00 | 63 | 1020.3 |
| 20260507095554 | 14 | 295 | 4.8 | 20.9 | 0.00 | 0.00 | 0.00 | 61 | 1020.1 |
| 20260507095054 | 13 | 293 | 9.7 | 20.9 | 0.00 | 0.00 | 0.00 | 62 | 1020.2 |
| 20260507094554 | 13 | 286 | 12.9 | 20.9 | 0.00 | 0.00 | 0.00 | 61 | 1020.1 |
| 20260507094054 | 14 | 272 | 8.0 | 16.1 | 0.00 | 0.00 | 0.00 | 59 | 1020.1 |
| 20260507093554 | 14 | 293 | 8.0 | 16.1 | 0.00 | 0.00 | 0.00 | 58 | 1020.1 |
| 20260507093055 | 14 | 207 | 0.0 | 8.0 | 0.00 | 0.00 | 0.00 | 61 | 1020.0 |
| 20260507092554 | 15 | 182 | 3.2 | 8.0 | 0.00 | 0.00 | 0.00 | 59 | 1019.9 |
| 20260507092054 | 14 | 212 | 3.2 | 8.0 | 0.00 | 0.00 | 0.00 | 61 | 1019.9 |
| 20260507091553 | 14 | 243 | 3.2 | 6.4 | 0.00 | 0.00 | 0.00 | 63 | 1019.9 |
| 20260507091054 | 14 | 159 | 1.6 | 4.8 | 0.00 | 0.00 | 0.00 | 66 | 1019.9 |
| 20260507090553 | 13 | 245 | 0.0 | 1.6 | 0.00 | 0.00 | 0.00 | 65 | 1020.1 |
| 20260507090055 | 13 | 233 | 0.0 | 1.6 | 0.00 | 0.00 | 0.00 | 64 | 1020.1 |
| 20260507085554 | 13 | 158 | 0.0 | 1.6 | 0.00 | 0.00 | 0.00 | 66 | 1020.1 |
| 20260507085053 | 13 | 227 | 0.0 | 3.2 | 0.00 | 0.00 | 0.00 | 63 | 1020.1 |
| 20260507084553 | 13 | 159 | 1.6 | 3.2 | 0.00 | 0.00 | 0.00 | 66 | 1020.1 |
| 20260507084053 | 13 | 217 | 1.6 | 3.2 | 0.00 | 0.00 | 0.00 | 65 | 1020.1 |
| 20260507083553 | 13 | 196 | 0.0 | 3.2 | 0.00 | 0.00 | 0.00 | 65 | 1020.1 |
| 20260507083052 | 12 | 113 | 0.0 | 1.6 | 0.00 | 0.00 | 0.00 | 67 | 1020.1 |
| 20260507082552 | 12 | 247 | 0.0 | 4.8 | 0.00 | 0.00 | 0.00 | 67 | 1020.1 |
| 20260507082052 | 12 | 276 | 1.6 | 6.4 | 0.00 | 0.00 | 0.00 | 66 | 1020.1 |
| 20260507081552 | 12 | 290 | 1.6 | 9.7 | 0.00 | 0.00 | 0.00 | 67 | 1020.1 |
| 20260507081053 | 12 | 283 | 4.8 | 9.7 | 0.00 | 0.00 | 0.00 | 70 | 1020.1 |
| 20260507080553 | 12 | 281 | 6.4 | 8.0 | 0.00 | 0.00 | 0.00 | 69 | 1020.2 |
| 20260507080053 | 12 | 274 | 3.2 | 8.0 | 0.00 | 0.00 | 0.00 | 69 | 1020.1 |
| 20260507075552 | 12 | 265 | 3.2 | 6.4 | 0.00 | 0.00 | 0.00 | 70 | 1020.1 |
| 20260507075051 | 12 | 272 | 1.6 | 4.8 | 0.00 | 0.00 | 0.00 | 68 | 1020.1 |
| 20260507074551 | 12 | 20 | 0.0 | 3.2 | 0.00 | 0.00 | 0.00 | 71 | 1020.1 |
| 20260507074051 | 12 | 10 | 0.0 | 3.2 | 0.00 | 0.00 | 0.00 | 72 | 1020.2 |
| 20260507073552 | 11 | 313 | 0.0 | 1.6 | 0.00 | 0.00 | 0.00 | 73 | 1020.2 |
| 20260507073053 | 11 | 286 | 0.0 | 1.6 | 0.00 | 0.00 | 0.00 | 74 | 1020.2 |
| 20260507072552 | 11 | 337 | 0.0 | 3.2 | 0.00 | 0.00 | 0.00 | 74 | 1020.1 |
| 20260507072051 | 11 | 300 | 1.6 | 3.2 | 0.00 | 0.00 | 0.00 | 74 | 1020.1 |
| 20260507071551 | 11 | 288 | 0.0 | 1.6 | 0.00 | 0.00 | 0.00 | 74 | 1020.1 |
| 20260507071050 | 11 | 271 | 0.0 | 1.6 | 0.00 | 0.00 | 0.00 | 74 | 1020.1 |
| 20260507070551 | 11 | 266 | 0.0 | 0.0 | 0.00 | 0.00 | 0.00 | 74 | 1020.1 |
| 20260507070050 | 11 | 248 | 0.0 | 0.0 | 0.00 | 0.00 | 0.00 | 74 | 1020.1 |
| 20260507065550 | 11 | 190 | 0.0 | 0.0 | 0.00 | 0.00 | 0.00 | 74 | 1020.1 |
| 20260507065051 | 11 | 121 | 0.0 | 0.0 | 0.00 | 0.00 | 0.00 | 75 | 1020.0 |
| 20260507064550 | 11 | 121 | 0.0 | 0.0 | 0.00 | 0.00 | 0.00 | 75 | 1020.1 |
| 20260507064051 | 10 | 121 | 0.0 | 0.0 | 0.00 | 0.00 | 0.00 | 75 | 1020.1 |
| 20260507063551 | 10 | 121 | 0.0 | 0.0 | 0.00 | 0.00 | 0.00 | 75 | 1020.1 |
| 20260507063049 | 10 | 238 | 0.0 | 0.0 | 0.00 | 0.00 | 0.00 | 75 | 1020.1 |
| 20260507062549 | 10 | 238 | 0.0 | 0.0 | 0.00 | 0.00 | 0.00 | 74 | 1020.0 |
| 20260507062049 | 10 | 238 | 0.0 | 0.0 | 0.00 | 0.00 | 0.00 | 74 | 1020.0 |
| 20260507061550 | 10 | 255 | 0.0 | 0.0 | 0.00 | 0.00 | 0.00 | 74 | 1020.0 |
| 20260507061047 | 10 | 272 | 0.0 | 0.0 | 0.00 | 0.00 | 0.00 | 74 | 1020.0 |
| 20260507060547 | 10 | 272 | 0.0 | 0.0 | 0.00 | 0.00 | 0.00 | 74 | 1019.9 |
| 20260507060046 | 10 | 272 | 0.0 | 0.0 | 0.00 | 0.00 | 0.00 | 70 | 1019.8 |
| 20260507055545 | 10 | 272 | 0.0 | 0.0 | 0.00 | 0.00 | 0.00 | 71 | 1019.9 |
| 20260507055045 | 10 | 272 | 0.0 | 0.0 | 0.00 | 0.00 | 0.00 | 69 | 1019.9 |
| 20260507054543 | 10 | 272 | 0.0 | 0.0 | 0.00 | 0.00 | 0.00 | 69 | 1019.8 |
| 20260507054042 | 10 | 272 | 0.0 | 0.0 | 0.00 | 0.00 | 0.00 | 66 | 1019.7 |
| 20260507053543 | 9 | 272 | 0.0 | 0.0 | 0.00 | 0.00 | 0.00 | 65 | 1019.7 |
| 20260507053041 | 9 | 272 | 0.0 | 0.0 | 0.00 | 0.00 | 0.00 | 63 | 1019.7 |
| 20260507052540 | 9 | 272 | 0.0 | 0.0 | 0.00 | 0.00 | 0.00 | 59 | 1019.4 |
| 20260507052041 | 9 | 272 | 0.0 | 0.0 | 0.00 | 0.00 | 0.00 | 54 | 1019.4 |
| 20260507051540 | 9 | 259 | 0.0 | 0.0 | 0.00 | 0.00 | 0.00 | 55 | 1019.4 |
| 20260507051039 | 9 | 293 | 0.0 | 0.0 | 0.00 | 0.00 | 0.00 | 57 | 1019.4 |
| 20260507050539 | 9 | 293 | 0.0 | 0.0 | 0.00 | 0.00 | 0.00 | 59 | 1019.3 |
| 20260507050039 | 9 | 292 | 0.0 | 0.0 | 0.00 | 0.00 | 0.00 | 60 | 1019.3 |
| 20260507045537 | 9 | 293 | 0.0 | 0.0 | 0.00 | 0.00 | 0.00 | 59 | 1019.4 |
| 20260507045037 | 9 | 293 | 0.0 | 0.0 | 0.00 | 0.00 | 0.00 | 57 | 1019.3 |
| 20260507044538 | 9 | 292 | 0.0 | 0.0 | 0.00 | 0.00 | 0.00 | 59 | 1019.2 |
| 20260507044035 | 8 | 296 | 0.0 | 0.0 | 0.00 | 0.00 | 0.00 | 58 | 1019.1 |
| 20260507043534 | 8 | 288 | 0.0 | 0.0 | 0.00 | 0.00 | 0.00 | 61 | 1019.2 |
| 20260507043035 | 8 | 348 | 0.0 | 0.0 | 0.00 | 0.00 | 0.00 | 60 | 1019.1 |
| 20260507042535 | 8 | 313 | 0.0 | 0.0 | 0.00 | 0.00 | 0.00 | 60 | 1019.1 |
| 20260507042035 | 8 | 329 | 0.0 | 0.0 | 0.00 | 0.00 | 0.00 | 57 | 1019.1 |
| 20260507041535 | 8 | 327 | 0.0 | 0.0 | 0.00 | 0.00 | 0.00 | 53 | 1019.1 |
| 20260507041034 | 8 | 290 | 0.0 | 0.0 | 0.00 | 0.00 | 0.00 | 48 | 1018.9 |
| 20260507040534 | 8 | 290 | 0.0 | 0.0 | 0.00 | 0.00 | 0.00 | 47 | 1018.9 |
| 20260507040035 | 8 | 114 | 0.0 | 0.0 | 0.00 | 0.00 | 0.00 | 48 | 1018.8 |
| 20260507035534 | 8 | 114 | 0.0 | 0.0 | 0.00 | 0.00 | 0.00 | 49 | 1018.7 |
| 20260507035034 | 8 | 114 | 0.0 | 0.0 | 0.00 | 0.00 | 0.00 | 50 | 1018.8 |
| 20260507034534 | 8 | 114 | 0.0 | 0.0 | 0.00 | 0.00 | 0.00 | 51 | 1018.6 |
| 20260507034034 | 8 | 114 | 0.0 | 0.0 | 0.00 | 0.00 | 0.00 | 55 | 1018.6 |
| 20260507033535 | 8 | 120 | 0.0 | 0.0 | 0.00 | 0.00 | 0.00 | 56 | 1018.7 |
| 20260507033035 | 8 | 283 | 0.0 | 0.0 | 0.00 | 0.00 | 0.00 | 50 | 1018.7 |
| 20260507032534 | 8 | 282 | 0.0 | 0.0 | 0.00 | 0.00 | 0.00 | 51 | 1018.6 |
| 20260507032034 | 8 | 278 | 0.0 | 0.0 | 0.00 | 0.00 | 0.00 | 55 | 1018.6 |
| 20260507031535 | 8 | 312 | 0.0 | 0.0 | 0.00 | 0.00 | 0.00 | 53 | 1018.6 |
| 20260507031034 | 8 | 305 | 0.0 | 0.0 | 0.00 | 0.00 | 0.00 | 56 | 1018.7 |
| 20260507030535 | 8 | 347 | 0.0 | 0.0 | 0.00 | 0.00 | 0.00 | 56 | 1018.6 |
| 20260507030034 | 8 | 312 | 0.0 | 0.0 | 0.00 | 0.00 | 0.00 | 58 | 1018.6 |
| 20260507025534 | 8 | 276 | 0.0 | 0.0 | 0.00 | 0.00 | 0.00 | 61 | 1018.6 |
| 20260507025035 | 8 | 276 | 0.0 | 0.0 | 0.00 | 0.00 | 0.00 | 58 | 1018.5 |
| 20260507024534 | 8 | 276 | 0.0 | 0.0 | 0.00 | 0.00 | 0.00 | 58 | 1018.5 |
| 20260507024034 | 8 | 275 | 0.0 | 0.0 | 0.00 | 0.00 | 0.00 | 57 | 1018.6 |
| 20260507023534 | 8 | 305 | 0.0 | 1.6 | 0.00 | 0.00 | 0.00 | 56 | 1018.6 |
| 20260507023034 | 8 | 305 | 0.0 | 1.6 | 0.00 | 0.00 | 0.00 | 58 | 1018.5 |
| 20260507022534 | 8 | 110 | 0.0 | 0.0 | 0.00 | 0.00 | 0.00 | 65 | 1018.5 |
| 20260507022036 | 8 | 110 | 0.0 | 0.0 | 0.00 | 0.00 | 0.00 | 70 | 1018.6 |
| 20260507021534 | 8 | 110 | 0.0 | 0.0 | 0.00 | 0.00 | 0.00 | 72 | 1018.5 |
| 20260507021035 | 9 | 296 | 0.0 | 0.0 | 0.00 | 0.00 | 0.00 | 71 | 1018.4 |
| 20260507020535 | 9 | 295 | 0.0 | 0.0 | 0.00 | 0.00 | 0.00 | 69 | 1018.3 |
| 20260507020034 | 8 | 295 | 0.0 | 0.0 | 0.00 | 0.00 | 0.00 | 68 | 1018.1 |
| 20260507015534 | 8 | 292 | 0.0 | 1.6 | 0.00 | 0.00 | 0.00 | 69 | 1018.3 |
| 20260507015034 | 8 | 292 | 0.0 | 1.6 | 0.00 | 0.00 | 0.00 | 69 | 1018.3 |
| 20260507014534 | 8 | 288 | 0.0 | 1.6 | 0.00 | 0.00 | 0.00 | 68 | 1018.1 |
| 20260507014034 | 8 | 288 | 0.0 | 1.6 | 0.00 | 0.00 | 0.00 | 68 | 1018.1 |
| 20260507013534 | 8 | 271 | 0.0 | 1.6 | 0.00 | 0.00 | 0.00 | 68 | 1018.0 |
| 20260507013034 | 9 | 279 | 0.0 | 1.6 | 0.00 | 0.00 | 0.00 | 68 | 1018.1 |
| 20260507012534 | 9 | 323 | 0.0 | 1.6 | 0.00 | 0.00 | 0.00 | 67 | 1017.9 |
| 20260507012034 | 9 | 353 | 0.0 | 1.6 | 0.00 | 0.00 | 0.00 | 65 | 1017.8 |
| 20260507011534 | 9 | 31 | 0.0 | 1.6 | 0.00 | 0.00 | 0.00 | 66 | 1017.9 |
| 20260507011035 | 9 | 299 | 0.0 | 3.2 | 0.00 | 0.00 | 0.00 | 67 | 1017.8 |
| 20260507010534 | 8 | 313 | 0.0 | 3.2 | 0.00 | 0.00 | 0.00 | 69 | 1017.9 |
| 20260507010035 | 8 | 331 | 0.0 | 4.8 | 0.00 | 0.00 | 0.00 | 68 | 1017.8 |
| 20260507005535 | 8 | 345 | 0.0 | 6.4 | 0.00 | 0.00 | 0.00 | 68 | 1017.9 |
| 20260507005035 | 8 | 302 | 3.2 | 6.4 | 0.00 | 0.00 | 0.00 | 65 | 1017.9 |
| 20260507004535 | 8 | 295 | 3.2 | 6.4 | 0.00 | 0.00 | 0.00 | 62 | 1017.9 |
| 20260507004035 | 8 | 296 | 0.0 | 4.8 | 0.00 | 0.00 | 0.00 | 62 | 1017.9 |
| 20260507003534 | 8 | 305 | 3.2 | 4.8 | 0.00 | 0.00 | 0.00 | 62 | 1017.9 |
| 20260507003034 | 8 | 289 | 3.2 | 8.0 | 0.00 | 0.00 | 0.00 | 63 | 1018.0 |
| 20260507002534 | 8 | 282 | 4.8 | 8.0 | 0.00 | 0.00 | 0.00 | 63 | 1018.0 |
| 20260507002034 | 8 | 292 | 3.2 | 6.4 | 0.00 | 0.00 | 0.00 | 61 | 1018.0 |
| 20260507001534 | 8 | 285 | 3.2 | 4.8 | 0.00 | 0.00 | 0.00 | 68 | 1017.9 |
| 20260507001035 | 8 | 317 | 0.0 | 8.0 | 0.00 | 0.00 | 0.00 | 66 | 1017.9 |
| 20260507000534 | 8 | 296 | 3.2 | 8.0 | 0.00 | 0.00 | 0.00 | 70 | 1017.9 |
| 20260507000034 | 8 | 272 | 4.8 | 6.4 | 0.00 | 0.00 | 0.00 | 63 | 1017.8 |
| 20260506235534 | 8 | 302 | 0.0 | 3.2 | 0.00 | 0.00 | 0.00 | 68 | 1017.8 |
| 20260506235035 | 9 | 296 | 0.0 | 3.2 | 0.00 | 0.00 | 0.00 | 69 | 1017.9 |
| 20260506234534 | 9 | 298 | 0.0 | 3.2 | 0.00 | 0.00 | 0.00 | 73 | 1017.9 |
| 20260506234034 | 9 | 0 | 0.0 | 0.0 | 0.00 | 0.00 | 0.00 | 73 | 1017.8 |
| 20260506233534 | 9 | 285 | 0.0 | 0.0 | 0.00 | 0.00 | 0.00 | 72 | 1017.8 |
| 20260506233034 | 9 | 283 | 0.0 | 1.6 | 0.00 | 0.00 | 0.00 | 72 | 1017.8 |
| 20260506232535 | 9 | 281 | 0.0 | 1.6 | 0.00 | 0.00 | 0.00 | 72 | 1017.8 |
| 20260506232034 | 9 | 279 | 0.0 | 4.8 | 0.00 | 0.00 | 0.00 | 72 | 1017.9 |
| 20260506231534 | 9 | 310 | 0.0 | 4.8 | 0.00 | 0.00 | 0.00 | 68 | 1017.9 |
| 20260506231035 | 10 | 300 | 3.2 | 4.8 | 0.00 | 0.00 | 0.00 | 72 | 1017.9 |
| 20260506230534 | 10 | 313 | 3.2 | 4.8 | 0.00 | 0.00 | 0.00 | 72 | 1017.9 |
| 20260506230034 | 10 | 312 | 0.0 | 4.8 | 0.00 | 0.00 | 0.00 | 72 | 1017.8 |
| 20260506225535 | 9 | 345 | 1.6 | 4.8 | 0.00 | 0.00 | 0.00 | 70 | 1017.8 |
| 20260506225034 | 9 | 306 | 0.0 | 4.8 | 0.00 | 0.00 | 0.00 | 66 | 1017.8 |
| 20260506224534 | 9 | 310 | 1.6 | 4.8 | 0.00 | 0.00 | 0.00 | 72 | 1017.8 |
| 20260506224035 | 10 | 345 | 0.0 | 3.2 | 0.00 | 0.00 | 0.00 | 71 | 1017.7 |
| 20260506223534 | 10 | 295 | 0.0 | 3.2 | 0.00 | 0.00 | 0.00 | 72 | 1017.8 |
| 20260506223034 | 10 | 319 | 0.0 | 4.8 | 0.00 | 0.00 | 0.00 | 73 | 1017.7 |
| 20260506222533 | 10 | 300 | 1.6 | 4.8 | 0.00 | 0.00 | 0.00 | 73 | 1017.7 |
| 20260506222035 | 10 | 278 | 1.6 | 4.8 | 0.00 | 0.00 | 0.00 | 72 | 1017.6 |
| 20260506221534 | 10 | 306 | 3.2 | 4.8 | 0.00 | 0.00 | 0.00 | 70 | 1017.5 |
| 20260506221034 | 10 | 266 | 0.0 | 4.8 | 0.00 | 0.00 | 0.00 | 72 | 1017.4 |
| 20260506220533 | 10 | 309 | 0.0 | 4.8 | 0.00 | 0.00 | 0.00 | 72 | 1017.4 |
| 20260506220034 | 10 | 358 | 1.6 | 4.8 | 0.00 | 0.00 | 0.00 | 72 | 1017.2 |
| 20260506215534 | 10 | 324 | 1.6 | 6.4 | 0.00 | 0.00 | 0.00 | 73 | 1017.1 |
| 20260506215034 | 10 | 306 | 3.2 | 6.4 | 0.00 | 0.00 | 0.00 | 73 | 1017.1 |
| 20260506214535 | 10 | 299 | 1.6 | 6.4 | 0.00 | 0.00 | 0.00 | 73 | 1017.2 |
| 20260506214034 | 10 | 283 | 1.6 | 4.8 | 0.00 | 0.00 | 0.00 | 73 | 1017.1 |
| 20260506213535 | 10 | 302 | 1.6 | 11.3 | 0.00 | 0.00 | 0.00 | 74 | 1017.1 |
| 20260506213034 | 11 | 353 | 3.2 | 16.1 | 0.00 | 0.00 | 0.00 | 74 | 1017.0 |
| 20260506212534 | 11 | 272 | 9.7 | 16.1 | 0.00 | 0.00 | 0.00 | 74 | 1016.9 |
| 20260506212034 | 11 | 296 | 6.4 | 19.3 | 0.00 | 0.00 | 0.00 | 74 | 1016.7 |
| 20260506211534 | 11 | 290 | 14.5 | 19.3 | 0.00 | 0.00 | 0.00 | 74 | 1016.7 |
| 20260506211035 | 11 | 278 | 6.4 | 17.7 | 0.00 | 0.00 | 0.00 | 74 | 1016.7 |
| 20260506210535 | 11 | 276 | 6.4 | 17.7 | 0.00 | 0.00 | 0.00 | 74 | 1016.5 |
| 20260506210034 | 11 | 289 | 4.8 | 17.7 | 0.00 | 0.00 | 0.00 | 74 | 1016.5 |
| 20260506205534 | 11 | 281 | 9.7 | 16.1 | 0.00 | 0.00 | 0.00 | 74 | 1016.4 |
| 20260506205034 | 11 | 279 | 6.4 | 16.1 | 0.00 | 0.00 | 0.00 | 74 | 1016.3 |
| 20260506204534 | 11 | 283 | 11.3 | 19.3 | 0.00 | 0.00 | 0.00 | 74 | 1016.3 |
| 20260506204035 | 12 | 276 | 11.3 | 19.3 | 0.00 | 0.00 | 0.00 | 74 | 1016.3 |
| 20260506203534 | 12 | 271 | 9.7 | 19.3 | 0.00 | 0.00 | 0.00 | 74 | 1016.1 |
| 20260506203034 | 12 | 290 | 8.0 | 19.3 | 0.00 | 0.00 | 0.00 | 74 | 1016.2 |
| 20260506202534 | 12 | 255 | 8.0 | 20.9 | 0.00 | 0.00 | 0.00 | 74 | 1016.1 |
| 20260506202034 | 12 | 296 | 16.1 | 20.9 | 0.00 | 0.00 | 0.00 | 74 | 1016.0 |
| 20260506201535 | 12 | 309 | 11.3 | 17.7 | 0.00 | 0.00 | 0.00 | 73 | 1015.8 |
| 20260506201035 | 12 | 282 | 8.0 | 16.1 | 0.00 | 0.00 | 0.00 | 73 | 1015.7 |
| 20260506200534 | 12 | 282 | 11.3 | 20.9 | 0.00 | 0.00 | 0.00 | 72 | 1015.8 |
| 20260506200035 | 12 | 266 | 12.9 | 20.9 | 0.00 | 0.00 | 0.00 | 72 | 1015.9 |
| 20260506195535 | 13 | 272 | 11.3 | 20.9 | 0.00 | 0.00 | 0.00 | 71 | 1015.8 |
| 20260506195034 | 13 | 276 | 12.9 | 25.7 | 0.00 | 0.00 | 0.00 | 70 | 1015.8 |
| 20260506194534 | 13 | 264 | 12.9 | 25.7 | 0.00 | 0.00 | 0.00 | 69 | 1015.6 |
| 20260506194034 | 13 | 269 | 14.5 | 25.7 | 0.00 | 0.00 | 0.00 | 68 | 1015.6 |
| 20260506193534 | 13 | 281 | 16.1 | 22.5 | 0.00 | 0.00 | 0.00 | 66 | 1015.4 |
| 20260506193034 | 14 | 314 | 8.0 | 16.1 | 0.00 | 0.00 | 0.00 | 65 | 1015.4 |